Lapse_Rate
4.5 4.6 4.7 4.1 3.8 3.7 3.9 3.8 4.0 3.8 3.5 3.2 2.9 2.2 1.5 0.9 1.0 0.9 1.6 0.7 3.9 6.3 5.7 4.9 6.2 7.5 7.2 7.3 6.5 7.0 6.8 7.0 6.7 6.5 6.5 6.4 6.5 6.5 6.5 6.4 6.4 6.5 6.4 6.5 6.5 6.5 6.5 6.9 6.7 6.5 6.7 7.1 7.3 7.3
3.3 3.7 4.1 4.0 3.4 3.2 3.2 3.2 3.4 3.5 3.5 3.3 3.2 2.7 1.9 1.6 1.5 0.3 2.6 1.7 1.8 5.1 6.1 2.0 4.8 5.6 6.7 7.4 7.7 7.0 7.0 7.0 7.1 6.5 6.5 6.5 6.5 6.5 6.5 6.5 6.4 6.5 6.5 6.5 6.5 6.5 6.6 7.2 7.0 6.9 6.6 7.3 7.4 7.5
2.8 3.1 3.1 3.4 3.2 3.2 3.2 2.9 3.1 3.2 3.1 2.9 3.1 2.9 2.1 1.9 2.2 2.1 2.2 2.1 2.7 4.4 5.6 4.4 6.2 5.0 3.6 4.2 7.5 7.3 7.4 7.2 7.5 6.5 6.9 6.5 6.5 6.5 6.5 6.5 6.5 6.6 6.9 6.5 6.5 6.5 6.6 7.1 7.1 6.2 6.6 7.4 7.0 7.4
2.8 2.6 2.8 2.6 2.8 3.2 3.2 3.0 2.9 2.8 3.0 2.9 3.0 2.8 2.4 2.0 1.9 2.2 2.6 2.4 2.2 3.5 7.0 7.0 4.2 4.9 3.7 4.0 4.6 5.9 6.6 6.0 6.7 6.8 7.1 6.5 6.5 6.9 6.5 6.5 6.4 6.6 6.6 6.5 6.5 6.6 6.9 7.0 7.1 6.9 6.8 6.7 6.7 7.8
2.9 2.7 2.6 2.6 2.0 3.1 3.4 3.1 2.8 2.9 3.2 3.1 3.1 2.9 2.3 1.9 1.7 1.7 2.7 3.7 3.5 5.3 7.0 6.7 3.9 3.3 3.3 3.8 4.6 5.5 6.4 7.9 7.9 7.1 6.7 6.5 6.9 6.7 6.7 6.5 6.4 6.8 6.5 6.5 6.5 6.8 6.8 6.9 6.5 6.0 6.7 6.8 6.6 7.2
2.7 2.6 2.6 2.6 2.6 2.6 3.2 3.5 3.2 2.9 2.6 2.9 3.2 2.5 1.9 1.5 1.5 2.9 5.7 3.5 3.5 5.1 7.4 6.5 5.0 3.7 4.1 4.1 4.7 5.1 5.7 7.7 7.9 7.5 7.0 7.3 7.6 7.0 6.5 6.5 6.7 7.2 6.8 6.4 6.8 7.4 7.4 6.9 5.9 6.2 7.2 6.3 6.5 7.1
2.4 2.7 2.7 2.8 2.7 2.3 3.0 3.4 3.6 2.6 2.4 2.8 2.6 2.3 1.8 1.2 1.6 4.8 6.2 4.9 2.5 5.6 7.4 7.0 6.8 5.8 3.7 4.6 5.3 5.7 5.8 7.1 7.9 7.6 7.2 7.1 7.2 7.2 6.5 6.5 6.8 7.0 6.0 5.5 5.6 6.2 7.0 7.2 7.3 8.0 7.9 6.9 6.8 6.9
2.3 2.5 2.5 2.5 2.6 2.8 2.8 3.1 3.4 2.8 2.5 2.3 1.8 1.1 1.1 1.1 1.9 5.2 5.1 3.1 4.2 6.3 7.1 6.5 6.5 7.0 5.5 7.4 7.2 5.3 7.6 7.7 7.7 7.4 7.5 7.0 7.2 7.0 6.5 6.7 7.2 7.4 7.6 7.5 6.6 6.7 7.0 6.3 6.0 6.3 8.1 7.4 7.4 6.7
2.6 2.4 2.6 2.5 2.6 2.6 2.6 2.7 3.2 2.6 2.3 2.0 1.5 1.5 2.8 4.0 5.8 6.0 4.9 4.3 5.2 6.7 7.0 7.0 6.5 6.5 6.0 7.4 6.8 7.1 6.4 6.5 7.6 6.5 6.7 6.8 6.5 6.5 6.6 6.9 7.2 7.3 7.3 7.6 7.6 7.7 6.6 7.1 6.5 6.8 8.0 7.6 7.5 6.7
2.5 2.4 2.4 2.2 2.4 2.5 2.5 2.9 2.9 2.6 2.2 1.8 2.2 5.4 6.6 4.5 4.3 5.2 6.5 6.6 6.7 6.9 7.4 6.8 7.5 6.5 6.3 7.1 7.0 6.8 7.2 6.5 6.5 6.6 7.3 6.5 6.5 6.8 6.5 6.7 7.2 7.3 6.8 6.4 5.6 7.2 7.5 7.5 7.7 7.8 7.9 6.3 6.3 5.7
2.4 2.5 2.4 2.2 2.4 2.5 2.6 2.9 3.0 2.6 2.4 4.0 5.1 6.2 4.5 2.7 5.9 6.8 7.1 6.8 7.0 6.6 7.5 7.5 7.5 6.7 6.5 6.6 6.4 7.2 6.5 6.5 6.5 6.5 6.5 6.4 6.5 6.4 6.4 6.6 7.0 7.0 6.0 5.5 5.8 6.0 7.2 7.7 7.6 7.6 7.5 7.6 6.4 5.5
2.2 2.4 2.4 2.6 3.4 3.2 3.5 3.0 3.2 3.7 3.9 3.2 2.8 2.0 3.3 6.1 7.1 6.5 6.4 6.7 6.5 6.5 7.2 7.0 7.2 6.6 7.4 6.2 6.9 6.9 6.5 6.5 6.5 6.8 6.5 6.5 6.5 5.6 6.7 6.7 6.8 7.5 7.1 7.6 7.2 7.0 7.6 8.1 7.3 6.9 6.9 7.1 5.9 5.2
2.2 2.3 2.6 3.0 3.1 3.0 3.4 3.2 3.5 2.8 2.2 2.9 3.8 5.4 7.1 7.1 6.5 6.5 6.5 6.5 6.5 6.9 7.0 6.9 6.7 7.0 6.8 6.1 6.9 6.6 6.5 6.5 7.0 6.6 6.5 6.4 6.0 6.5 6.1 5.8 5.3 5.8 6.5 7.0 7.7 7.4 7.1 6.5 7.1 6.1 5.7 6.1 6.2 5.3
2.2 2.2 2.4 2.8 3.0 3.2 2.9 3.5 3.2 2.4 3.6 5.6 7.1 6.5 6.5 6.4 6.4 6.5 6.5 6.5 7.2 6.2 6.8 6.5 7.0 6.8 7.1 6.6 6.6 6.5 6.5 6.5 6.5 6.5 6.5 6.5 7.0 7.4 6.7 6.6 5.5 4.8 5.4 6.7 7.5 7.0 7.4 7.9 7.2 6.8 6.7 6.3 5.8 5.1
2.3 2.4 2.4 2.9 4.1 3.4 3.2 3.2 2.9 3.1 4.0 6.3 7.1 6.5 6.5 7.2 7.4 7.5 7.5 7.2 6.8 6.4 6.5 6.4 6.8 7.1 6.6 6.5 6.4 6.5 6.5 6.5 6.5 6.5 6.5 6.6 7.4 7.5 7.4 7.2 6.9 5.4 5.2 6.0 6.8 7.7 7.0 6.7 6.9 6.9 6.4 5.6 5.5 4.6
2.6 2.9 4.2 3.6 3.5 3.5 3.0 2.4 3.1 3.7 4.5 5.6 6.8 6.7 7.2 6.9 6.9 7.3 7.3 7.3 5.9 4.9 4.1 6.7 6.6 6.5 6.5 6.5 6.6 6.5 6.5 6.5 6.5 6.5 7.0 7.2 7.3 7.5 7.5 7.5 7.8 7.5 6.7 7.2 6.8 6.9 7.0 7.4 6.7 6.8 6.4 5.9 5.6 5.1
3.6 4.9 4.3 3.7 3.4 3.0 2.8 3.9 4.2 5.2 6.8 7.3 7.0 7.6 7.5 7.3 7.2 7.2 5.6 5.6 5.5 6.8 6.5 6.6 6.5 6.5 6.6 6.6 6.5 6.5 6.5 6.5 7.1 7.5 7.3 7.4 6.2 6.2 6.7 6.7 7.3 7.8 7.3 8.0 8.2 7.9 7.0 6.7 6.9 7.2 6.7 6.1 5.3 6.2
5.5 5.7 4.4 4.2 4.2 4.2 4.2 4.1 5.1 6.5 6.9 7.4 6.9 7.2 6.7 7.1 7.5 6.8 5.2 5.1 5.9 5.5 7.1 6.5 7.1 6.5 6.6 6.5 6.5 6.6 7.2 7.4 7.4 6.6 6.2 6.0 6.6 6.9 6.5 5.9 6.2 6.6 6.7 6.7 7.4 7.8 6.3 6.7 6.6 6.5 5.4 4.7 5.8 6.2
5.1 4.7 4.5 4.2 4.5 4.8 5.2 5.0 4.7 6.8 7.1 7.5 6.6 6.3 6.5 7.1 6.0 5.8 6.0 4.7 5.3 5.6 6.4 7.1 6.5 6.5 6.5 6.9 6.8 7.1 6.2 5.9 5.8 5.7 5.4 5.6 5.8 6.1 7.7 7.5 8.1 7.8 7.3 6.5 5.9 6.1 5.8 5.8 6.3 5.4 5.1 4.4 5.7 5.9
4.0 3.4 3.5 3.6 4.3 5.0 5.6 6.3 5.5 6.3 6.9 7.3 6.4 6.5 6.8 6.8 6.0 5.2 5.4 5.8 6.3 5.2 7.0 6.6 6.5 7.0 7.1 7.4 6.5 5.0 4.2 5.4 5.8 6.6 6.5 7.2 7.9 6.9 6.2 7.1 7.3 7.8 7.6 7.3 6.4 4.8 6.1 5.8 7.5 6.3 5.6 5.5 5.3 5.7
4.8 4.3 3.7 4.2 5.1 5.6 5.7 6.6 6.5 6.7 7.4 7.2 6.8 6.7 6.7 6.3 6.3 6.4 6.6 5.8 7.3 7.1 6.8 6.6 6.0 6.3 5.3 5.7 5.3 5.6 5.3 5.8 6.2 6.6 6.7 7.2 6.4 5.1 5.4 6.5 6.4 6.7 6.9 6.9 6.9 6.7 5.6 6.2 5.5 6.5 5.5 5.5 5.3 6.0
5.4 4.6 4.7 4.5 5.3 5.3 5.0 4.4 5.2 5.7 5.9 6.9 6.5 6.3 7.0 6.8 6.6 7.0 5.4 6.8 7.2 7.3 6.3 4.8 4.6 5.7 5.3 5.4 5.7 5.4 5.6 5.9 6.0 5.4 3.4 5.6 5.7 5.0 5.9 6.2 5.9 5.7 6.2 6.8 6.6 6.2 5.7 6.6 6.6 6.4 5.5 4.9 4.0 4.9
4.8 5.0 5.4 5.6 6.4 5.8 5.4 5.7 6.5 6.4 6.5 6.7 6.9 6.7 6.7 6.8 6.9 5.5 6.8 6.6 7.0 5.5 4.4 4.9 4.8 4.4 4.9 5.2 4.9 4.9 4.9 5.2 5.4 5.1 5.0 5.1 4.5 4.8 5.7 6.0 5.0 6.1 6.2 6.4 5.6 5.4 5.7 3.6 5.2 5.8 5.5 5.4 5.6 4.4
4.4 5.8 6.3 6.8 6.5 6.4 7.0 6.6 6.7 7.0 7.0 6.6 6.6 6.5 6.5 6.7 6.0 6.9 6.5 6.9 5.4 4.3 3.9 3.7 4.5 4.6 4.2 4.2 4.6 5.4 5.2 4.5 5.0 4.7 5.2 5.6 6.0 5.6 5.3 5.6 4.8 5.6 6.0 5.4 5.3 5.4 5.3 5.4 4.6 5.5 5.5 5.4 5.5 5.5
6.1 5.8 6.0 5.6 6.8 6.7 6.5 6.4 6.5 6.5 6.4 6.6 6.5 6.5 6.5 7.1 6.5 6.6 6.5 6.9 5.0 5.3 5.1 4.6 4.7 5.8 6.7 6.6 6.4 6.0 5.5 5.2 4.8 4.0 5.5 5.1 6.0 6.2 5.0 5.6 5.1 5.0 5.8 5.8 5.6 6.2 6.6 6.6 5.7 5.8 6.7 6.0 5.9 5.7
6.5 6.3 6.1 6.7 6.6 6.5 6.5 6.5 6.5 6.5 6.5 6.5 6.5 6.9 7.1 6.5 6.5 6.5 6.6 6.6 4.5 5.3 5.2 5.0 5.4 5.0 4.9 4.9 5.1 6.7 7.1 4.4 4.8 5.9 5.9 5.7 5.8 6.9 7.4 5.4 5.3 5.4 4.9 5.2 6.1 6.4 6.2 6.6 6.6 6.3 5.9 5.3 3.1 5.8
6.5 6.5 6.5 5.7 6.3 6.4 6.6 6.3 7.0 6.6 6.5 6.5 6.5 6.5 6.5 6.5 6.5 6.7 5.4 3.4 4.2 4.3 5.5 5.6 5.7 5.9 6.3 6.7 5.5 5.9 5.7 5.1 5.1 5.9 5.4 4.8 4.9 5.5 6.4 7.1 6.8 5.5 4.5 5.3 5.8 6.9 6.7 6.4 6.4 6.5 6.7 5.6 5.4 5.4
7.0 6.9 6.5 6.6 6.5 6.4 6.5 6.5 6.5 6.5 6.5 6.9 6.7 6.6 6.5 6.5 6.5 6.3 5.5 4.5 4.2 3.9 5.0 5.7 5.9 6.0 6.0 6.9 6.9 6.4 6.3 5.4 5.7 5.6 6.6 6.9 5.5 5.9 5.4 5.0 4.3 -0.4 4.5 5.3 5.1 7.2 6.9 6.3 5.7 6.0 6.2 6.6 6.7 5.8
6.9 7.3 7.1 6.6 6.7 6.7 6.9 6.6 6.6 6.8 5.7 4.7 6.4 6.5 6.7 5.4 5.6 4.8 4.0 2.9 3.4 4.1 3.7 3.3 4.0 3.5 5.3 4.6 5.6 5.8 5.7 6.2 7.3 7.5 7.7 7.9 8.2 7.7 6.0 5.8 5.4 5.2 5.2 4.6 -1.7 2.9 6.1 6.7 7.1 7.0 6.6 5.9 6.2 6.1
7.0 7.7 7.0 6.9 6.5 6.5 7.0 7.1 7.0 6.1 4.7 5.3 4.6 4.6 4.5 4.7 3.5 2.4 2.9 3.1 2.8 4.4 5.0 6.1 5.3 4.8 5.4 6.6 7.0 6.7 6.6 6.1 7.0 8.3 8.1 8.2 7.9 6.9 6.7 6.6 6.6 6.4 6.4 6.3 6.3 6.5 2.7 6.3 5.7 7.6 7.2 6.6 7.4 7.4
7.4 7.5 7.1 7.0 6.7 7.3 7.6 7.7 6.2 5.9 5.7 5.4 4.7 6.0 6.8 5.6 4.6 3.7 3.6 4.0 3.7 3.8 5.3 4.5 5.5 5.1 6.3 6.3 6.8 7.2 7.2 5.8 5.5 6.0 6.8 7.6 8.0 7.2 6.6 6.1 6.5 6.8 7.3 7.6 7.5 7.4 7.7 7.6 7.6 7.5 7.3 6.9 6.3 5.1
7.4 7.0 6.7 6.5 6.8 6.7 6.5 6.3 7.4 7.0 6.7 6.2 6.5 5.6 5.9 5.8 6.2 5.9 3.8 2.7 3.1 5.0 5.1 4.8 6.0 6.1 6.0 7.3 6.9 7.2 2.7 7.4 6.2 6.3 5.3 6.2 7.0 6.8 6.7 6.9 7.4 7.7 7.5 7.3 7.9 8.3 7.9 7.7 7.6 7.7 7.6 7.4 7.5 7.6
6.2 7.1 7.4 7.0 6.8 6.8 6.6 6.5 6.7 6.9 7.1 7.0 6.9 6.3 6.9 7.2 6.7 6.1 3.2 3.8 5.3 6.5 6.0 5.8 5.7 6.0 6.1 5.7 6.2 6.7 2.6 6.4 5.0 2.2 0.6 1.9 2.4 3.7 6.5 7.3 7.5 7.8 8.0 8.0 8.1 8.1 8.4 8.5 8.7 8.5 8.3 8.2 8.1 8.1
Wind_Speed
10 9 10 10 10 10 11 12 13 13 14 15 15 15 14 14 15 5 1 6 2 2 5 6 4 6 3 2 2 2 4 2 1 4 3 4 4 4 3 5 6 10 7 5 4 7 12 9 7 8 2 0 5 7
12 11 9 9 8 9 10 11 12 12 13 13 14 13 11 12 12 6 1 3 4 3 4 2 5 8 5 4 4 2 2 2 2 2 2 2 4 2 3 5 2 6 9 7 9 6 1 8 1 3 3 6 10 10
14 13 11 10 9 8 9 10 11 11 12 12 13 13 10 10 9 6 3 3 1 2 4 3 2 2 4 12 12 4 3 4 2 1 2 2 5 2 4 5 3 5 3 4 2 10 10 7 6 5 5 7 9 8
13 13 12 11 10 10 9 8 10 11 12 12 13 13 13 10 8 5 1 1 1 0 2 1 2 4 1 6 11 17 2 3 1 1 3 4 4 4 4 4 5 2 4 4 6 10 9 10 7 3 5 7 7 6
13 12 12 12 12 11 10 9 9 11 12 13 12 12 10 9 8 4 2 2 2 2 3 5 11 1 3 7 9 11 12 8 4 3 5 5 3 4 5 3 10 5 10 9 12 7 5 9 7 4 8 11 7 8
12 12 11 11 11 11 11 10 10 12 13 14 14 12 10 6 4 1 1 2 5 2 2 3 4 3 1 5 8 9 7 6 4 4 4 4 4 5 6 10 10 11 13 13 13 13 11 12 12 12 13 10 8 9
12 13 12 11 10 10 11 12 11 12 14 15 15 14 13 4 2 1 2 2 8 2 2 4 4 2 3 3 1 2 5 3 4 3 4 4 6 5 8 13 15 12 14 15 15 10 10 13 12 12 13 10 7 10
13 13 13 12 11 11 11 11 11 11 13 14 16 12 1 4 3 2 1 12 4 2 1 3 4 3 2 2 2 1 2 2 4 3 2 3 2 3 5 9 14 17 19 17 15 12 16 14 15 15 11 8 11 12
12 13 13 12 12 12 11 10 10 11 12 12 3 5 2 1 1 2 3 9 6 2 3 2 2 2 2 1 2 1 1 2 2 3 2 2 1 2 10 14 17 14 9 12 11 11 12 14 15 12 12 12 13 10
11 12 13 12 12 12 11 10 8 10 11 1 1 2 1 1 7 1 3 2 2 2 2 3 2 3 1 2 1 2 1 2 2 1 1 1 2 3 12 16 11 11 11 9 7 13 10 8 7 7 9 10 11 7
13 12 13 13 13 12 10 8 6 7 1 0 1 1 2 6 1 1 1 2 2 3 4 4 5 4 2 2 2 1 2 1 3 1 2 2 2 7 14 15 13 11 6 6 5 1 4 5 5 4 1 5 7 8
16 14 12 13 13 12 9 6 4 1 1 2 1 0 1 1 1 2 2 1 4 3 4 3 2 4 2 1 2 2 2 0 4 2 1 1 3 8 11 13 15 16 16 13 13 12 11 9 8 7 7 7 6 6
17 16 14 14 13 11 8 6 6 8 7 2 1 1 2 2 0 4 5 3 3 4 4 3 2 2 2 3 3 1 3 4 2 3 3 3 5 7 7 9 12 13 15 13 12 11 9 8 10 9 5 7 8 7
17 17 16 16 14 11 9 8 9 7 1 2 2 2 5 4 5 5 3 2 1 2 2 2 2 2 1 3 1 3 1 2 3 3 3 2 8 12 10 10 7 11 14 16 13 12 12 10 9 8 7 8 9 9
18 19 18 18 13 13 12 10 13 2 2 2 3 4 7 5 4 4 4 3 2 2 2 2 2 1 1 2 0 2 3 3 2 2 3 7 13 13 12 10 11 9 10 12 13 12 12 11 8 8 8 9 9 9
19 17 2 13 9 3 11 14 2 1 2 3 4 4 5 3 4 3 3 4 2 3 1 1 2 1 2 2 3 4 3 2 2 4 7 10 13 13 13 12 12 10 11 12 12 11 11 10 9 10 10 8 9 9
14 2 15 7 1 14 11 2 2 3 3 4 4 5 6 6 5 4 2 2 2 3 1 1 2 2 1 2 3 1 2 5 9 8 7 12 12 12 11 11 12 12 11 12 12 11 10 9 8 8 9 9 9 9
3 4 7 4 6 1 1 0 2 3 5 5 4 2 3 5 4 4 3 3 4 3 3 2 2 3 3 2 1 3 4 6 4 4 5 6 7 9 7 9 9 10 11 11 10 10 9 8 7 6 7 7 8 6
7 11 10 6 4 2 2 3 2 3 6 3 4 5 4 4 5 5 3 3 2 2 4 3 3 3 2 2 1 1 2 2 2 4 4 6 7 9 12 11 12 11 10 7 7 6 7 9 7 5 4 5 5 4
21 19 15 11 9 2 2 2 3 3 3 2 3 3 3 3 1 1 4 4 4 2 3 3 4 3 3 3 4 4 3 2 4 6 7 7 9 13 12 12 9 10 8 6 4 6 5 5 4 3 3 4 4 3
6 1 6 7 2 3 2 2 3 3 3 3 2 2 3 2 2 3 3 3 3 3 3 3 3 4 5 5 5 4 6 5 6 6 9 10 9 8 10 10 9 6 5 4 4 4 4 4 3 2 2 3 1 0
2 6 2 3 3 3 3 3 2 3 2 3 3 3 3 2 3 3 4 3 3 3 3 4 4 6 6 7 6 6 6 7 10 8 9 9 7 7 9 11 8 4 3 2 3 3 4 3 2 1 1 2 1 2
4 3 2 3 4 4 4 4 3 3 3 2 2 3 3 2 1 3 3 3 3 3 5 4 6 4 5 4 4 6 5 7 8 8 8 6 5 5 7 11 8 3 2 2 1 1 1 2 2 3 3 3 5 4
3 2 3 3 5 3 3 4 3 3 3 3 3 3 3 2 3 2 3 3 2 4 6 8 7 5 2 3 4 7 5 3 7 7 3 6 5 4 7 9 6 4 4 3 3 4 3 4 4 5 6 6 6 6
2 3 3 5 4 3 4 4 4 3 4 6 3 3 3 3 4 3 3 3 3 6 7 7 6 7 7 6 5 6 4 3 4 6 4 5 4 3 7 9 8 7 5 5 5 6 6 5 6 8 10 9 9 12
4 6 6 4 3 5 5 3 6 7 3 3 5 2 3 3 3 4 3 3 3 6 9 10 9 7 6 6 5 5 3 1 3 4 3 5 3 3 7 8 7 7 7 6 7 8 7 6 8 12 12 12 11 13
3 5 4 3 2 1 3 2 3 4 3 3 2 4 4 3 4 2 2 3 3 4 8 9 9 8 7 5 4 4 4 3 3 4 4 2 1 1 2 1 3 1 2 5 5 7 7 7 10 11 12 10 9 8
4 2 5 3 3 3 2 3 3 3 3 2 2 3 2 3 1 1 2 1 3 4 7 8 8 7 6 4 1 2 3 2 3 2 2 3 2 4 4 3 3 5 4 6 7 7 10 12 9 9 10 7 6 6
4 2 3 3 2 3 5 5 3 2 2 3 2 2 2 1 1 1 1 2 3 5 6 6 6 5 5 4 3 3 2 2 1 4 6 6 6 6 5 5 5 5 5 8 11 7 8 6 7 7 8 8 7 7
4 5 3 3 4 5 5 6 3 1 2 1 1 2 2 2 2 1 2 3 4 6 6 6 6 7 6 6 5 5 4 4 3 3 5 5 5 3 4 5 5 5 5 7 9 9 8 8 7 6 7 7 8 10
1 4 3 4 4 6 9 8 3 1 2 2 3 3 3 2 2 3 4 4 5 5 5 5 6 6 7 7 6 5 5 5 5 5 4 5 5 5 5 4 4 4 4 6 7 7 8 8 8 9 10 12 12 10
4 7 4 3 3 3 3 4 4 4 3 2 3 3 2 2 3 2 4 6 6 7 6 6 6 7 9 6 6 4 1 5 7 6 9 6 7 7 6 5 4 5 7 8 8 8 11 11 9 11 11 13 13 13
2 4 6 4 3 2 1 2 3 2 3 3 3 2 2 2 4 1 2 6 6 7 8 9 7 3 7 10 8 6 5 3 4 4 9 10 11 11 7 6 6 7 9 8 9 9 11 13 11 12 12 11 11 10
Wind_Direction
288 298 310 319 326 334 337 341 344 346 348 353 0 6 8 10 11 11 33 17 342 257 270 214 231 218 168 203 252 25 292 168 249 221 227 218 232 211 247 245 206 201 196 205 199 239 259 182 142 224 55 46 284 283
284 287 295 305 319 332 333 337 338 342 343 345 351 360 3 6 4 14 27 9 344 246 297 303 271 266 252 271 249 198 312 277 273 264 240 288 242 237 257 250 156 238 230 232 212 224 358 204 45 98 28 296 282 281
293 283 281 289 295 302 320 328 332 334 339 339 342 348 355 350 353 357 326 343 308 306 280 276 247 178 210 225 224 208 216 233 216 293 310 295 262 197 244 235 252 221 188 242 196 237 235 234 266 277 273 277 289 272
303 291 281 279 283 288 295 314 323 327 328 330 335 343 347 341 331 328 288 140 81 131 299 329 333 273 159 174 192 214 296 117 79 244 263 256 249 206 246 279 249 283 157 240 253 270 272 257 240 271 316 310 282 269
316 304 291 285 284 285 287 297 314 314 317 318 324 331 337 333 329 310 240 231 214 334 305 293 307 249 212 194 206 217 233 241 241 232 228 236 238 237 237 266 254 221 253 254 265 286 312 290 316 260 303 303 279 265
319 314 307 295 287 284 281 278 293 302 310 317 316 317 323 323 325 247 211 174 202 211 314 308 345 267 299 209 243 234 218 202 209 207 224 231 239 229 250 255 255 242 226 235 256 272 270 274 280 272 280 268 261 250
328 317 310 305 299 293 284 277 284 297 304 311 312 306 307 268 177 268 18 37 170 207 303 301 295 252 297 286 194 161 160 179 212 226 232 252 248 197 256 262 263 252 247 245 246 261 270 263 267 277 256 233 259 250
321 317 314 314 313 303 292 282 283 298 306 314 323 328 138 151 232 260 176 192 138 258 258 291 280 285 0 272 266 45 194 200 198 270 245 251 260 237 259 318 311 269 256 253 256 250 255 274 277 265 237 241 263 247
316 314 314 311 309 304 295 283 285 298 309 323 343 120 127 91 103 49 17 147 194 287 304 254 279 325 355 259 267 188 320 247 131 250 251 273 282 245 321 318 304 304 298 295 296 278 270 261 264 255 239 250 243 246
322 311 311 313 307 304 299 282 285 302 319 90 211 247 140 48 335 306 191 190 215 202 225 253 243 257 292 356 296 298 157 295 280 228 260 286 306 303 337 315 294 306 296 293 304 321 319 314 296 272 232 234 243 236
328 314 308 312 309 304 294 278 280 316 116 71 32 61 3 320 209 193 229 225 154 242 214 236 230 279 152 270 285 244 321 276 270 116 293 46 334 293 318 329 339 350 305 284 283 264 41 23 25 355 89 282 263 252
328 319 308 307 309 306 288 263 244 316 62 85 77 98 260 170 145 251 220 193 218 249 192 214 222 212 258 216 252 200 273 238 252 337 114 277 250 275 317 332 340 0 12 18 10 358 4 7 13 28 26 23 353 307
321 320 310 301 301 303 281 245 199 123 130 139 151 179 157 148 157 210 201 202 231 203 202 198 221 211 186 222 242 247 240 232 317 228 152 217 267 295 308 324 335 346 355 3 358 359 349 336 351 4 17 12 356 332
318 316 309 298 292 287 269 224 172 147 163 194 185 283 209 202 235 210 224 227 239 205 193 199 223 221 191 227 214 252 264 273 253 244 168 229 315 319 316 319 320 332 337 335 342 342 338 343 347 344 352 355 342 330
320 314 306 295 283 262 224 194 160 151 181 213 186 231 224 236 262 257 257 271 241 231 181 169 120 259 213 275 191 323 266 250 245 343 325 319 313 314 313 314 309 310 315 313 320 329 329 333 338 327 335 343 334 323
324 316 354 323 275 230 165 125 118 151 221 220 231 250 233 263 256 226 232 251 191 151 120 117 107 230 264 269 242 232 275 319 17 310 307 300 303 307 313 312 304 296 293 293 296 305 313 325 331 321 317 314 328 323
324 269 349 5 157 135 130 119 157 221 249 227 236 233 260 283 262 265 236 248 151 180 239 153 186 237 130 238 245 233 312 312 306 300 290 291 297 293 299 294 295 299 291 288 288 292 301 308 313 310 310 326 324 316
246 350 49 83 29 112 74 140 192 245 249 239 240 241 215 240 255 237 227 183 169 169 175 219 130 208 230 246 250 358 318 324 308 304 302 301 304 317 309 297 294 292 290 284 284 289 292 295 305 308 311 317 316 316
283 289 283 250 247 291 219 198 203 255 247 249 247 241 246 251 241 249 232 159 162 124 138 176 213 214 225 202 269 159 244 263 288 308 287 281 282 293 317 311 310 306 298 287 291 292 294 283 276 279 298 307 295 307
294 274 252 231 198 231 245 223 197 262 269 267 234 235 237 247 275 188 155 155 148 157 186 218 219 188 195 195 186 212 231 291 309 308 303 311 317 321 317 310 296 298 292 288 262 257 268 282 257 251 292 278 290 304
296 168 141 155 180 240 268 238 216 237 270 259 277 231 255 192 198 182 165 159 180 220 224 206 194 188 194 193 213 223 258 264 275 278 290 300 311 309 303 320 309 285 277 274 275 269 254 284 275 302 288 283 276 169
257 159 125 198 219 207 261 216 237 290 261 268 277 229 246 219 189 188 140 185 226 223 193 176 185 188 193 211 226 236 266 287 287 285 279 291 290 303 313 325 318 279 266 264 262 297 299 296 326 336 224 202 134 117
301 193 200 186 223 203 256 160 220 218 251 251 257 240 221 207 146 156 208 223 251 203 176 186 181 165 189 215 254 266 269 285 293 302 316 317 290 285 303 332 341 346 83 71 314 293 10 6 62 102 116 123 117 106
171 223 217 208 202 250 202 194 220 237 247 243 231 254 181 142 161 210 247 232 216 164 179 179 169 159 168 238 254 266 280 277 301 305 346 350 352 350 314 334 347 27 65 66 57 57 47 55 56 74 83 81 87 90
171 218 202 231 209 221 240 190 205 225 241 207 221 229 177 172 188 206 246 258 197 190 191 173 184 199 212 227 253 270 279 276 306 316 12 28 44 69 19 12 29 33 26 63 60 68 66 68 66 72 84 88 90 93
209 199 200 214 191 223 199 211 201 213 240 246 218 109 165 171 203 232 227 223 202 188 183 184 190 189 224 232 253 273 310 255 295 309 28 34 25 118 75 56 29 30 19 33 45 47 50 74 94 86 76 62 64 93
238 233 207 220 273 292 264 273 262 252 235 228 157 167 179 215 222 237 257 212 203 195 187 182 183 194 212 217 223 252 280 277 262 304 323 30 34 311 211 196 77 59 340 3 22 23 24 70 89 85 85 74 63 62
250 240 229 174 196 207 273 253 223 238 232 187 152 185 222 210 236 205 230 119 182 152 170 183 197 206 211 222 240 306 312 286 279 303 232 137 102 48 31 34 352 332 295 339 336 355 74 118 121 94 67 68 100 96
232 223 207 243 219 243 220 226 248 249 177 169 186 235 245 231 283 233 204 176 159 157 159 173 194 198 223 232 248 258 217 244 284 66 46 38 33 29 19 31 45 53 58 68 48 69 97 79 85 71 70 84 95 108
232 190 216 226 217 224 224 201 232 243 204 233 306 298 257 245 244 161 163 173 180 190 186 177 163 181 200 205 205 205 218 224 225 119 108 74 64 82 51 41 41 45 58 78 85 87 91 100 92 86 89 88 95 101
207 187 229 234 251 244 236 237 251 264 219 213 201 245 265 302 291 206 203 194 170 163 172 167 173 183 189 190 195 200 193 190 188 157 127 130 122 108 105 95 87 72 62 61 68 88 99 91 90 92 93 93 91 90
202 206 209 235 254 244 202 193 198 211 220 222 237 211 222 211 251 242 178 157 164 181 182 177 186 191 196 188 199 204 290 155 171 175 164 165 143 133 130 121 112 101 94 90 90 88 84 84 89 95 100 102 103 104
215 228 226 266 259 250 122 186 186 217 202 218 230 221 236 220 242 259 153 203 193 193 185 191 201 198 190 192 194 191 186 175 178 185 167 161 156 145 141 138 133 130 119 110 106 104 99 99 100 102 105 107 109 111